Temp
73 79 76 75 62 57 54 63 69 71 73 76 80 77 74 77 75 65 78 84 79 77 78 79 79 80 80 79 79 79 79 79 79 79 79 79 79 79 78 78 79 79 80 80 80 80 80 80 80
75 81 77 68 55 48 56 70 69 72 77 78 78 79 78 74 83 78 77 81 80 78 77 78 79 80 79 79 79 78 79 79 78 78 78 78 78 78 78 78 79 79 80 80 80 80 80 80 80
79 79 66 59 52 52 57 70 71 76 82 80 77 82 79 77 84 81 81 81 79 76 77 78 79 79 79 79 78 78 78 78 78 78 78 78 78 78 78 78 79 80 80 80 80 80 79 79 79
76 70 66 54 52 61 66 72 73 75 80 81 78 76 82 85 84 84 84 82 78 77 78 79 79 79 79 79 79 78 78 78 78 78 78 78 78 77 77 78 78 79 80 80 80 79 78 78 78
71 62 53 47 53 62 71 75 77 77 78 78 79 73 76 84 86 84 82 83 78 77 77 78 79 79 79 79 79 78 78 78 78 78 78 78 77 77 77 78 78 79 79 80 79 78 77 77 77
63 61 48 45 54 66 71 75 76 78 80 80 78 75 74 83 84 82 84 82 82 78 76 77 79 79 79 79 78 78 78 77 77 77 77 77 77 77 77 77 78 78 78 79 78 78 77 77 77
60 55 48 51 55 62 69 73 72 76 81 79 83 73 75 80 80 84 83 82 82 80 77 76 77 78 79 78 78 77 77 77 77 77 77 77 77 77 77 77 77 77 77 77 77 77 77 76 76
64 58 52 53 55 58 71 73 74 73 79 87 87 72 70 80 84 84 81 82 80 77 77 75 76 77 79 79 78 77 77 77 76 76 76 76 77 77 77 75 76 77 77 77 77 77 76 76 76
65 52 50 55 57 62 72 69 75 81 77 84 86 81 84 84 85 83 79 78 77 77 73 73 75 75 77 80 79 77 78 77 77 76 76 75 72 73 74 75 76 77 77 77 76 76 76 76 76
58 47 53 63 65 64 70 72 72 74 75 76 79 84 83 83 84 80 76 73 74 75 75 72 73 75 76 80 79 77 77 76 75 75 74 72 71 70 74 74 76 77 77 77 76 76 76 76 69
58 55 61 64 67 70 71 73 77 72 68 72 75 79 80 77 78 79 79 77 76 76 78 76 73 73 75 77 76 76 77 75 74 73 72 71 71 70 70 68 70 70 75 70 73 71 70 69 68
55 63 66 68 71 70 69 75 73 73 73 78 80 81 79 78 77 78 79 76 75 75 77 78 76 74 73 74 75 76 75 73 72 73 71 70 69 68 67 68 68 68 69 69 68 68 68 68 69
55 61 66 70 71 71 73 70 71 73 78 82 81 80 76 74 75 76 79 80 76 75 75 77 75 74 73 72 74 73 73 72 72 71 72 71 69 69 69 70 69 68 68 68 68 69 69 68 69
61 62 63 65 66 66 68 70 68 74 78 79 78 79 79 76 76 74 75 76 75 76 75 77 77 72 74 73 72 74 74 74 73 73 73 72 72 70 70 68 70 68 69 71 70 70 69 68 69
63 56 60 61 61 63 66 61 65 71 76 75 76 76 77 76 77 76 77 75 73 72 73 76 77 73 75 76 75 74 75 75 73 75 73 73 70 70 70 70 70 72 71 71 69 70 70 69 70
54 52 44 55 62 65 62 55 67 69 70 70 72 74 75 75 75 75 75 72 70 72 73 73 80 78 78 79 78 79 76 76 77 76 75 75 74 72 70 72 72 72 71 71 70 70 69 69 68
46 41 46 52 61 61 59 57 66 69 69 67 68 68 71 71 71 73 73 70 70 69 71 72 73 74 78 77 76 77 79 77 78 77 77 76 76 75 74 75 72 72 72 71 71 70 70 69 70
42 43 48 49 60 58 57 57 66 70 66 67 64 66 68 68 70 71 69 69 67 67 68 69 71 72 72 71 72 73 74 75 72 78 78 77 76 76 75 73 71 71 71 70 69 70 70 69 68
53 50 49 56 63 55 55 55 59 66 64 62 61 64 65 67 71 69 68 67 66 66 66 66 68 69 70 70 68 67 73 71 72 73 74 77 77 75 77 74 71 70 70 71 70 69 69 68 68
54 50 50 55 60 57 55 55 59 62 62 62 63 62 62 60 65 64 64 65 65 64 65 64 66 66 69 69 69 68 67 69 71 70 71 71 74 76 76 76 73 70 69 69 69 68 67 67 68
55 51 49 50 55 56 53 50 53 60 62 64 63 64 64 63 62 62 65 63 62 63 64 65 64 65 65 67 68 67 67 68 67 68 69 71 72 73 75 73 72 71 72 74 69 69 67 68 67
48 58 57 54 46 38 54 36 47 54 57 60 62 60 61 64 64 65 65 60 63 63 63 64 64 64 65 64 64 65 64 62 65 68 70 71 72 71 73 73 74 73 72 73 73 71 70 67 71
51 59 56 53 44 39 45 38 45 52 53 55 60 62 63 64 66 64 62 63 62 62 61 62 63 63 64 63 63 62 62 63 64 65 66 70 71 73 73 73 74 74 74 75 73 70 69 69 71
58 52 48 45 40 31 44 40 42 47 51 54 60 65 67 63 61 62 63 62 61 61 61 61 62 62 62 62 62 61 61 62 62 63 63 65 67 68 71 73 72 72 72 71 71 70 68 67 70
51 43 32 28 28 32 45 40 46 50 57 57 59 61 62 60 60 62 63 63 60 60 60 60 61 61 61 62 61 61 61 61 62 62 63 64 64 64 66 68 69 70 72 73 71 70 70 70 71
42 38 28 27 22 33 42 34 41 56 60 61 63 59 60 59 62 63 64 64 62 63 61 61 59 60 61 61 61 61 61 60 61 62 62 62 62 64 66 67 68 69 69 69 69 68 70 71 72
44 35 41 34 35 30 35 42 50 55 56 60 62 61 55 57 60 62 60 59 61 60 60 61 62 62 61 62 61 61 61 60 61 63 62 62 62 66 66 67 67 66 66 67 68 67 70 71 71
48 48 31 35 27 25 32 35 36 45 50 55 57 57 59 61 60 59 59 59 60 60 62 62 63 62 62 61 61 62 61 62 62 61 62 62 62 63 64 65 67 66 67 66 67 68 69 66 67
41 37 36 36 34 28 25 31 45 46 49 52 56 61 56 57 57 58 58 58 60 60 60 60 60 61 61 61 61 60 60 61 61 61 62 63 63 64 64 65 66 66 66 67 68 68 68 68 67
45 38 37 30 29 32 30 30 48 48 51 55 57 61 61 57 55 55 58 57 59 58 58 61 59 59 60 61 60 60 60 61 59 60 61 62 63 64 64 65 66 66 67 67 68 68 69 68 68
MSLP
1010.51 1009.92 1009.76 1010.07 1011.19 1011.29 1010.15 1008.83 1007.36 1006.32 1004.99 1004.24 1003.55 1003.45 1003.57 1003.33 1004.23 1005.86 1005.56 1005.73 1006.69 1007.62 1008.01 1008.39 1009.01 1009.08 1009.43 1009.85 1010.05 1010.45 1010.85 1011.15 1011.37 1011.75 1012.12 1012.45 1012.75 1013.13 1013.49 1013.79 1014.11 1014.25 1014.38 1014.57 1014.68 1014.82 1014.95 1015.02 1015.14
1010.56 1010.01 1009.98 1010.62 1011.43 1011.36 1009.35 1008.16 1007.18 1005.99 1004.64 1004.36 1003.96 1003.94 1003.85 1004.76 1004.71 1005.26 1005.60 1006.20 1006.60 1007.48 1008.18 1008.52 1009.17 1009.50 1009.50 1009.77 1010.06 1010.66 1011.04 1011.37 1011.72 1012.02 1012.28 1012.63 1012.88 1013.24 1013.49 1013.86 1014.14 1014.33 1014.42 1014.47 1014.66 1014.77 1014.87 1015.02 1015.07
1010.55 1010.61 1011.19 1011.45 1011.50 1010.80 1009.14 1007.93 1007.01 1005.81 1004.45 1004.22 1004.16 1003.85 1004.39 1004.72 1004.94 1005.24 1005.22 1006.04 1006.89 1007.80 1008.06 1008.46 1008.98 1009.59 1009.86 1009.97 1009.98 1010.31 1011.00 1011.36 1011.96 1012.43 1012.57 1012.75 1013.13 1013.42 1013.60 1013.91 1014.13 1014.27 1014.38 1014.54 1014.65 1014.77 1014.89 1014.97 1015.03
1010.67 1011.27 1011.71 1011.83 1011.40 1009.66 1008.63 1007.13 1006.92 1005.98 1004.67 1004.15 1004.58 1004.79 1004.69 1004.65 1004.46 1004.64 1005.53 1006.02 1006.56 1007.74 1008.11 1008.24 1008.93 1009.54 1010.04 1010.16 1010.32 1010.36 1010.88 1011.41 1011.78 1012.29 1012.77 1013.10 1013.30 1013.52 1013.78 1013.94 1014.18 1014.37 1014.43 1014.51 1014.72 1014.83 1014.94 1015.03 1015.15
1011.09 1012.08 1012.29 1012.40 1011.24 1009.50 1008.41 1007.19 1006.70 1006.09 1005.21 1004.81 1005.07 1005.44 1005.03 1005.04 1004.56 1004.99 1005.47 1006.00 1006.46 1007.29 1007.90 1008.12 1008.52 1009.48 1010.18 1010.57 1010.77 1010.86 1011.25 1011.59 1011.94 1012.30 1012.71 1013.15 1013.49 1013.71 1013.89 1014.15 1014.41 1014.59 1014.72 1014.71 1014.67 1014.73 1014.77 1014.98 1015.22
1011.61 1012.30 1012.80 1012.38 1011.24 1009.47 1007.87 1007.28 1006.93 1006.05 1004.82 1004.53 1005.22 1005.51 1005.54 1005.25 1005.00 1005.40 1005.92 1006.08 1006.58 1006.82 1007.78 1008.10 1008.25 1009.18 1010.07 1010.54 1011.05 1011.02 1011.38 1012.07 1012.27 1012.56 1012.92 1013.29 1013.57 1013.70 1013.98 1014.16 1014.36 1014.66 1014.80 1014.75 1014.73 1014.73 1014.89 1015.06 1015.26
1011.92 1012.58 1012.51 1012.15 1011.10 1009.58 1007.48 1007.31 1007.10 1006.20 1004.66 1004.05 1004.53 1005.21 1005.45 1004.93 1004.94 1005.04 1005.07 1006.05 1006.83 1007.01 1007.43 1008.14 1008.64 1009.18 1009.96 1010.49 1010.90 1011.08 1011.23 1011.75 1012.65 1012.81 1013.09 1013.54 1013.75 1013.86 1013.87 1014.06 1014.30 1014.59 1014.81 1014.88 1014.95 1014.97 1015.07 1015.11 1015.32
1011.78 1012.09 1011.98 1011.55 1010.92 1009.21 1007.55 1007.33 1006.79 1006.29 1004.71 1003.59 1003.34 1004.77 1005.22 1004.39 1004.33 1004.72 1004.82 1005.86 1006.75 1007.58 1007.83 1008.20 1008.42 1009.09 1009.83 1010.45 1010.76 1011.09 1011.04 1011.47 1012.06 1012.82 1013.23 1013.56 1013.71 1013.94 1014.10 1014.15 1014.32 1014.44 1014.70 1014.86 1014.97 1015.15 1015.20 1015.31 1015.34
1011.18 1011.64 1011.42 1010.87 1010.50 1009.15 1007.73 1007.26 1006.52 1005.73 1005.35 1003.91 1003.71 1003.71 1004.01 1004.02 1003.65 1004.78 1005.51 1006.67 1007.40 1008.08 1008.34 1008.90 1008.45 1009.00 1009.75 1010.38 1010.79 1011.00 1010.93 1011.29 1011.79 1012.32 1012.96 1013.44 1013.78 1013.91 1013.99 1014.17 1014.23 1014.46 1014.68 1014.76 1014.98 1015.07 1015.16 1015.26 1015.30
1011.13 1011.11 1010.53 1010.02 1009.39 1008.85 1007.86 1006.85 1006.73 1006.34 1004.98 1004.38 1004.21 1003.64 1004.14 1004.14 1003.75 1004.69 1005.58 1006.69 1007.21 1007.84 1008.40 1008.83 1009.31 1009.31 1009.33 1010.15 1010.70 1011.05 1011.39 1011.20 1011.59 1012.18 1012.59 1013.02 1013.49 1013.75 1013.95 1014.07 1014.14 1014.06 1014.30 1014.52 1014.76 1015.04 1015.13 1015.08 1015.24
1010.19 1010.17 1010.06 1009.39 1008.87 1008.63 1007.51 1006.34 1006.71 1006.23 1005.52 1004.73 1004.03 1003.64 1004.35 1004.66 1004.51 1004.64 1005.40 1005.75 1006.29 1007.07 1007.77 1008.40 1009.05 1009.69 1009.63 1009.82 1010.55 1011.03 1011.22 1011.51 1011.52 1011.80 1012.37 1012.59 1013.09 1013.41 1013.65 1013.97 1014.14 1014.23 1014.03 1014.27 1014.46 1014.74 1014.83 1014.95 1015.23
1010.39 1009.94 1009.68 1008.87 1008.36 1007.75 1006.93 1006.52 1006.08 1006.00 1005.17 1004.56 1004.01 1003.34 1004.32 1004.63 1004.70 1004.69 1004.86 1005.69 1005.98 1006.40 1006.72 1007.54 1008.34 1009.40 1009.85 1009.45 1010.17 1010.68 1011.09 1011.43 1011.61 1011.64 1011.86 1012.31 1012.57 1012.93 1013.20 1013.49 1013.72 1013.96 1013.89 1014.02 1014.37 1014.49 1014.57 1014.80 1014.90
1009.94 1009.52 1008.79 1008.14 1007.69 1007.38 1007.12 1006.35 1005.68 1004.97 1004.78 1003.98 1003.72 1003.37 1003.96 1004.37 1004.70 1004.68 1004.82 1004.87 1005.70 1006.06 1006.37 1007.22 1007.94 1008.70 1009.20 1010.03 1009.68 1010.13 1010.78 1011.07 1011.37 1011.72 1011.74 1011.87 1012.23 1012.35 1012.54 1012.87 1013.08 1013.31 1013.62 1013.86 1014.01 1014.08 1014.30 1014.51 1014.59
1009.53 1009.10 1008.47 1007.80 1007.37 1007.08 1006.96 1005.98 1005.45 1004.31 1004.12 1003.78 1003.88 1003.64 1003.97 1004.26 1004.38 1004.56 1004.94 1005.19 1005.62 1005.58 1005.99 1006.57 1007.42 1008.29 1008.62 1009.34 1009.84 1009.45 1009.73 1010.40 1010.95 1011.28 1011.42 1011.47 1011.62 1012.07 1012.40 1012.69 1013.03 1013.05 1013.17 1013.31 1013.51 1013.72 1014.18 1014.15 1014.22
1009.43 1009.11 1008.31 1007.67 1007.15 1006.60 1006.42 1005.88 1004.66 1004.11 1003.99 1004.25 1004.12 1004.05 1003.93 1003.95 1004.20 1004.60 1004.71 1005.04 1005.15 1005.56 1005.88 1006.15 1006.48 1007.12 1008.38 1008.67 1008.88 1009.36 1009.36 1009.73 1010.38 1010.62 1011.01 1011.30 1011.50 1011.74 1012.03 1012.46 1012.62 1012.56 1012.79 1013.01 1013.25 1013.44 1013.69 1014.02 1013.93
1009.85 1009.62 1009.13 1007.94 1007.34 1006.66 1006.62 1005.22 1004.29 1004.01 1003.87 1003.93 1004.09 1004.09 1003.90 1004.09 1004.34 1004.19 1004.45 1004.69 1005.00 1005.17 1005.46 1006.10 1006.43 1006.75 1007.07 1008.20 1008.40 1008.56 1008.88 1009.05 1009.31 1009.81 1010.38 1010.55 1010.90 1011.01 1011.56 1011.92 1012.04 1012.07 1012.34 1012.68 1013.06 1013.22 1013.53 1013.62 1013.62
1010.51 1010.25 1009.41 1008.17 1007.17 1007.03 1006.78 1005.37 1004.42 1004.06 1004.18 1003.78 1003.95 1004.15 1004.33 1004.33 1004.10 1004.24 1004.22 1004.54 1004.98 1005.14 1005.35 1005.87 1006.08 1006.77 1007.10 1007.23 1007.71 1007.87 1008.20 1008.34 1008.90 1008.99 1009.35 1010.17 1010.21 1010.36 1010.59 1011.22 1011.40 1011.49 1011.98 1012.25 1012.76 1012.85 1013.22 1013.36 1013.21
1010.82 1010.23 1009.32 1008.31 1006.93 1006.88 1006.39 1005.57 1004.64 1004.23 1003.98 1003.66 1003.78 1003.90 1003.94 1004.04 1004.02 1003.98 1004.30 1004.59 1005.04 1005.52 1005.55 1005.75 1006.06 1006.31 1007.25 1007.66 1007.96 1007.98 1007.88 1008.04 1008.30 1009.01 1008.96 1009.21 1009.72 1010.15 1009.68 1010.47 1011.06 1011.13 1011.70 1011.85 1012.22 1012.40 1012.68 1012.96 1013.06
1010.09 1009.78 1009.12 1007.77 1006.91 1006.82 1006.42 1005.67 1004.80 1003.71 1003.26 1003.25 1003.48 1003.70 1003.65 1003.64 1003.45 1003.41 1004.48 1005.07 1005.28 1005.50 1005.80 1005.92 1006.26 1006.61 1006.93 1007.76 1008.31 1008.48 1008.11 1007.95 1007.91 1008.46 1008.88 1009.17 1008.98 1009.57 1009.57 1009.57 1010.66 1010.82 1011.31 1011.72 1011.93 1012.32 1012.62 1012.90 1012.92
1009.21 1009.03 1008.39 1007.45 1006.77 1006.52 1006.05 1005.56 1004.58 1004.02 1003.30 1002.81 1003.03 1003.52 1003.85 1003.65 1003.58 1003.93 1004.49 1005.23 1005.57 1005.60 1005.74 1006.14 1006.54 1007.04 1007.11 1007.35 1007.78 1008.12 1008.48 1008.32 1008.01 1007.90 1008.51 1009.70 1009.42 1008.56 1008.95 1010.20 1009.94 1010.26 1010.75 1011.35 1011.85 1012.18 1012.53 1012.72 1012.86
1008.05 1007.90 1007.64 1007.29 1006.87 1006.41 1006.27 1005.83 1004.95 1003.91 1003.54 1002.94 1002.76 1002.64 1003.01 1003.56 1004.28 1004.47 1004.71 1004.93 1005.49 1005.82 1005.73 1005.85 1006.29 1006.88 1007.53 1007.65 1007.75 1008.29 1008.40 1008.31 1008.50 1008.27 1008.50 1008.28 1008.29 1008.72 1009.45 1009.83 1009.65 1009.95 1010.27 1010.59 1011.12 1011.64 1012.24 1012.45 1012.41
1007.48 1007.04 1006.92 1007.15 1007.46 1007.66 1007.16 1007.04 1005.71 1004.54 1004.15 1003.50 1003.02 1003.01 1003.26 1003.31 1003.51 1003.93 1004.15 1004.83 1004.85 1005.05 1005.32 1005.60 1006.02 1006.71 1007.04 1007.51 1008.02 1008.38 1008.52 1008.91 1008.66 1008.64 1008.22 1007.65 1007.61 1008.55 1008.68 1009.12 1008.86 1009.39 1009.91 1010.30 1010.34 1010.83 1011.41 1011.90 1011.89
1007.69 1007.31 1007.04 1007.41 1007.93 1008.11 1007.44 1007.89 1005.52 1004.94 1004.47 1004.05 1003.35 1002.80 1002.45 1002.59 1002.72 1003.12 1003.60 1004.14 1004.73 1005.17 1005.37 1005.59 1006.02 1006.43 1006.66 1007.11 1007.56 1007.94 1008.31 1008.43 1008.62 1008.41 1008.29 1008.06 1007.82 1007.48 1008.34 1009.05 1009.37 1009.75 1009.03 1009.48 1009.84 1010.36 1010.80 1011.27 1011.57
1008.10 1008.20 1008.51 1008.85 1009.10 1009.04 1007.64 1007.84 1006.01 1005.00 1004.34 1003.93 1003.18 1002.73 1002.15 1001.99 1002.09 1002.53 1003.36 1004.20 1004.91 1005.30 1005.51 1005.84 1006.26 1006.63 1006.65 1006.76 1007.07 1007.63 1007.96 1008.18 1008.41 1008.37 1008.27 1008.61 1008.62 1007.98 1007.96 1007.33 1007.65 1008.11 1008.03 1008.80 1009.84 1009.85 1010.41 1010.83 1010.91
1008.76 1009.66 1010.78 1011.16 1011.12 1009.43 1008.41 1007.77 1004.92 1004.26 1003.73 1003.50 1003.18 1001.96 1001.32 1001.64 1002.04 1002.24 1003.20 1004.20 1004.87 1005.48 1005.93 1006.03 1006.24 1006.46 1006.60 1006.98 1007.38 1007.55 1007.86 1008.19 1008.38 1008.36 1008.32 1008.28 1008.04 1008.08 1007.79 1007.79 1007.16 1008.05 1008.13 1007.50 1009.47 1009.59 1009.81 1009.54 1010.34
1010.07 1010.76 1011.29 1011.57 1012.32 1010.90 1009.16 1007.28 1005.03 1003.78 1003.47 1002.82 1002.43 1001.06 1000.87 1001.53 1002.07 1002.32 1003.07 1003.74 1004.26 1004.86 1005.31 1005.52 1005.90 1006.22 1006.47 1006.78 1007.22 1007.35 1007.66 1008.08 1008.32 1008.40 1008.40 1008.25 1008.23 1008.26 1008.18 1008.50 1007.90 1007.23 1007.60 1008.38 1008.38 1008.78 1008.69 1008.30 1009.63
1010.51 1011.25 1011.11 1011.74 1012.59 1012.29 1009.78 1006.87 1005.08 1004.01 1003.33 1002.80 1002.70 1002.37 1002.12 1002.10 1002.66 1002.78 1003.02 1003.35 1003.75 1004.17 1004.77 1005.11 1005.52 1005.60 1005.83 1006.20 1006.64 1007.04 1007.19 1007.56 1007.81 1007.70 1007.82 1007.85 1007.73 1007.63 1007.30 1007.52 1007.22 1007.42 1007.51 1007.66 1008.16 1007.29 1007.71 1008.10 1008.30
1010.44 1011.79 1012.22 1012.91 1012.73 1011.62 1009.34 1007.86 1006.17 1004.95 1003.96 1003.58 1003.44 1003.76 1004.08 1004.48 1004.32 1003.97 1003.61 1003.64 1003.67 1003.73 1004.14 1004.44 1004.57 1004.96 1005.19 1005.68 1006.14 1006.47 1006.54 1006.55 1006.73 1006.96 1007.21 1007.09 1006.91 1006.93 1007.17 1007.13 1007.29 1006.60 1006.69 1006.64 1007.41 1007.64 1007.17 1007.66 1007.38
1010.97 1011.73 1012.26 1012.55 1012.90 1012.05 1010.37 1008.20 1006.42 1005.40 1004.60 1004.55 1004.75 1004.51 1004.80 1005.15 1005.14 1004.75 1004.74 1004.60 1003.61 1003.57 1003.99 1004.17 1004.36 1004.52 1004.80 1005.04 1005.47 1005.81 1006.13 1006.22 1006.27 1006.39 1006.26 1006.17 1006.36 1006.59 1006.71 1006.68 1007.03 1006.65 1007.11 1006.99 1007.15 1007.31 1006.64 1006.25 1005.54
1010.67 1011.53 1012.05 1012.75 1013.01 1012.17 1011.14 1008.92 1006.52 1005.79 1005.32 1004.86 1004.82 1004.56 1004.74 1004.99 1005.47 1005.46 1005.11 1004.93 1004.58 1004.56 1003.89 1003.83 1003.95 1004.27 1004.40 1004.61 1005.06 1005.40 1005.65 1005.79 1006.27 1006.48 1006.41 1006.27 1006.04 1005.98 1006.18 1006.41 1006.51 1006.58 1006.82 1006.72 1006.49 1006.58 1005.90 1005.57 1005.39
Wind_Speed
8 9 1 3 4 4 5 3 2 8 11 4 7 10 7 6 6 6 4 15 18 15 14 15 17 19 19 19 19 19 18 18 19 18 18 18 18 17 16 15 14 13 14 12 11 9 8 7 6
5 6 4 2 4 1 6 2 5 5 6 2 5 6 14 5 5 6 4 11 18 16 13 14 17 17 20 20 20 18 18 18 18 17 18 17 17 17 16 15 14 13 13 13 11 10 8 6 5
4 2 3 4 3 6 4 4 5 10 8 7 4 4 3 3 6 7 7 16 16 13 13 15 19 17 18 19 21 21 18 19 17 16 16 17 16 15 15 14 13 13 13 12 11 9 8 5 4
3 5 4 3 7 10 3 11 6 10 9 8 1 5 3 3 0 9 17 18 18 14 13 20 19 18 17 19 20 21 19 18 18 17 15 14 14 14 13 13 12 11 12 11 10 8 6 4 1
3 3 1 2 7 9 6 8 7 14 7 6 7 2 4 5 8 14 16 17 18 14 13 17 22 18 16 17 17 19 18 17 17 17 16 14 13 12 11 11 10 9 8 10 10 8 7 5 2
3 3 1 4 7 10 8 6 4 9 5 2 11 5 2 4 9 6 10 13 16 18 13 14 22 19 17 17 16 18 18 15 16 15 15 13 12 12 11 10 9 8 7 8 8 8 7 5 3
5 3 5 5 5 9 20 2 3 9 11 4 9 7 4 3 1 8 12 13 12 13 16 12 13 16 19 16 17 18 19 18 13 13 13 12 11 11 11 10 9 7 6 6 6 6 5 5 3
4 4 4 5 7 12 21 6 5 6 16 3 4 8 5 7 5 10 10 15 11 10 11 12 14 14 14 13 17 18 20 20 18 14 13 12 12 11 10 10 8 8 8 7 6 5 5 5 4
3 1 7 8 9 10 18 11 6 9 6 2 4 7 8 8 9 11 14 12 10 8 6 5 13 13 13 14 13 16 20 20 19 17 15 11 4 6 8 9 9 8 8 8 7 7 6 6 7
5 5 7 6 6 8 15 15 7 8 16 11 6 8 2 4 8 10 11 10 9 11 8 6 4 11 14 11 11 11 9 10 10 9 11 7 6 5 6 8 11 11 10 9 9 8 8 8 3
5 7 5 7 10 12 18 24 12 10 11 8 8 6 7 2 6 9 9 11 14 12 9 11 8 8 12 11 7 5 6 6 7 11 9 8 6 5 4 3 4 4 9 4 5 4 4 5 4
6 6 12 13 15 16 14 19 18 9 12 11 13 7 9 8 7 7 8 9 11 13 15 16 15 11 8 9 9 9 8 5 5 8 10 8 6 6 5 4 5 5 4 5 4 3 5 6 5
5 7 11 16 18 19 19 23 20 18 9 10 9 5 3 8 7 6 6 7 8 10 10 14 14 13 7 7 9 10 8 7 6 6 8 7 6 7 6 6 5 5 4 4 4 5 4 5 6
5 6 9 9 13 9 16 20 5 10 7 4 6 7 9 9 9 4 4 6 8 8 12 14 15 10 9 8 8 10 10 10 8 7 8 10 7 6 6 5 5 4 5 5 5 6 4 5 4
5 7 10 5 4 6 5 8 15 4 7 7 7 8 10 11 10 11 10 8 9 5 7 13 17 17 10 13 12 8 9 9 8 8 9 10 7 7 7 5 5 6 4 6 4 4 3 4 4
5 3 4 6 5 7 5 17 16 8 5 9 9 9 9 10 9 7 7 10 8 9 9 6 9 17 17 14 11 9 9 9 11 9 8 13 12 9 7 6 6 5 5 4 4 4 4 4 4
5 5 8 10 7 5 5 17 10 8 8 11 8 8 9 10 8 9 9 10 8 8 9 8 6 7 12 10 8 9 13 9 9 9 9 13 13 13 10 7 5 6 5 5 4 4 4 4 5
7 5 6 8 11 4 12 17 18 18 11 15 9 8 8 9 9 8 8 9 9 7 7 7 5 5 5 1 2 2 5 7 5 7 9 13 10 11 11 6 6 5 4 4 3 4 3 3 1
9 12 15 16 15 4 7 10 10 17 10 9 6 8 9 10 9 7 8 6 7 7 9 7 6 3 3 3 1 2 5 3 3 4 5 9 11 10 10 8 6 6 6 5 5 3 4 3 2
14 15 17 10 7 5 7 12 8 9 7 8 8 8 8 3 6 6 9 9 5 7 8 9 8 6 3 2 2 1 1 2 2 4 4 6 7 10 6 9 7 7 4 4 5 4 2 2 3
15 14 6 7 4 5 4 8 7 6 5 5 6 6 6 10 9 8 12 10 9 9 8 9 9 8 6 4 2 1 1 2 1 4 7 8 8 3 9 7 6 6 6 6 6 5 6 5 3
6 8 7 4 4 4 3 7 7 5 8 7 9 4 9 9 8 11 14 8 11 9 7 8 8 8 5 5 4 4 3 2 2 3 3 6 10 9 5 6 7 7 6 6 6 5 6 3 8
5 10 6 4 2 1 5 1 10 4 10 10 11 9 10 12 16 14 11 12 6 7 7 7 6 4 4 4 4 3 4 3 3 3 5 6 4 8 12 11 11 11 7 7 7 5 5 5 6
5 5 6 6 3 2 7 6 10 7 6 6 8 16 17 11 10 12 11 10 7 7 7 7 8 5 3 2 1 2 3 3 2 2 2 4 4 4 7 9 8 6 5 3 6 4 6 5 6
6 4 3 6 4 12 5 5 19 2 7 4 18 23 11 9 11 17 18 14 10 10 9 7 9 7 6 6 5 5 5 4 5 5 4 3 3 3 6 5 6 8 9 8 5 6 7 7 9
3 7 7 8 4 12 6 8 8 5 6 6 15 21 11 11 12 17 17 14 13 12 11 9 8 7 7 7 7 6 7 5 5 5 4 4 3 4 6 7 6 7 6 6 6 3 6 5 11
2 4 3 3 4 4 6 7 9 6 2 11 13 20 6 8 9 12 8 9 9 9 9 10 10 9 9 9 7 7 7 7 6 8 5 4 5 5 5 6 5 4 6 7 9 5 12 13 15
6 6 4 2 4 5 5 6 6 4 4 12 14 13 14 17 11 4 5 8 8 8 10 10 12 12 10 9 7 7 7 7 7 5 6 7 6 4 6 6 6 4 4 3 6 12 16 13 10
1 4 2 3 2 2 4 6 4 5 4 3 10 13 6 8 8 9 9 10 4 7 9 11 9 9 8 8 8 7 7 7 6 6 7 6 5 6 6 5 6 5 7 7 9 13 14 14 8
3 4 3 4 4 4 3 7 6 4 5 7 7 7 5 4 4 4 6 6 6 6 7 11 8 7 8 7 6 7 6 6 5 5 7 7 7 6 7 7 6 6 8 8 8 12 12 12 13
Wind_Direction
327 315 268 34 45 63 255 275 227 309 342 30 358 80 79 33 141 192 356 158 130 145 156 150 156 149 144 141 134 132 131 127 124 125 121 117 117 118 119 121 124 130 133 132 127 120 117 116 115
322 321 21 74 95 35 265 205 322 272 267 41 132 88 58 60 36 98 85 141 141 147 155 149 156 156 151 146 139 137 136 132 129 129 128 127 126 131 131 132 136 140 140 140 136 134 131 126 126
296 219 74 114 150 212 217 153 359 318 315 350 60 52 84 137 104 163 148 143 137 149 156 156 154 160 157 150 145 141 141 136 135 136 134 133 137 139 137 141 144 148 149 145 141 137 135 134 127
7 357 22 110 231 261 230 305 312 309 307 21 179 28 36 315 282 163 150 148 144 155 161 156 153 159 160 156 151 143 144 142 141 140 138 141 144 143 144 146 149 155 154 148 144 139 134 136 149
46 64 63 213 258 270 259 284 311 298 267 18 91 111 50 15 40 132 154 155 154 155 163 157 150 155 161 160 152 143 141 143 142 142 144 146 148 147 147 146 152 159 157 154 155 153 154 164 178
11 108 143 220 247 271 279 282 291 278 262 127 106 103 318 287 71 149 168 166 161 154 159 159 150 154 161 157 156 146 140 141 142 143 146 150 153 151 149 149 154 163 171 168 165 168 169 178 201
150 109 210 219 256 282 280 11 253 265 280 212 141 135 211 324 103 78 168 166 165 154 150 153 151 150 159 157 157 151 143 140 143 143 146 152 156 156 157 156 161 172 185 183 188 188 189 193 224
156 132 226 220 248 270 277 299 303 300 241 280 155 163 206 214 123 71 62 146 143 144 150 153 149 149 164 168 159 158 149 147 147 150 151 158 163 165 167 166 173 181 194 202 209 215 217 234 243
132 169 233 225 228 255 288 288 293 282 267 242 246 153 189 210 119 88 88 107 119 124 123 164 152 149 159 171 171 164 158 154 154 154 159 160 165 171 176 181 186 195 205 210 222 222 227 239 251
156 192 233 234 244 248 263 276 288 311 304 294 281 84 92 247 120 110 119 141 146 148 142 147 163 159 149 166 173 169 170 158 156 160 162 161 169 175 185 195 199 200 206 216 223 228 234 236 240
218 236 241 260 253 253 263 273 276 258 271 261 248 238 160 173 109 118 120 145 164 156 158 160 157 172 162 156 160 174 169 172 162 163 167 167 172 183 183 194 215 213 215 216 219 222 226 225 224
243 257 235 254 254 263 268 275 270 235 241 236 234 188 149 163 155 143 138 145 148 163 174 170 164 175 193 158 162 175 174 174 182 180 171 174 176 186 190 190 200 203 212 206 212 218 225 228 234
187 243 241 237 246 252 257 262 263 254 231 248 252 126 164 156 172 166 151 111 153 160 164 168 160 174 166 186 170 167 176 180 180 190 189 182 187 191 186 201 193 192 195 207 212 230 229 227 222
284 282 268 263 248 246 257 269 238 255 185 233 239 202 221 180 181 156 162 168 145 158 168 161 166 168 160 181 196 180 173 181 184 191 200 196 191 195 197 191 203 208 195 208 207 220 217 234 226
300 315 316 252 251 242 216 270 254 232 181 194 233 269 254 200 185 182 188 173 149 146 140 175 167 165 186 186 179 183 181 174 184 195 193 199 195 190 191 195 199 208 194 214 215 237 226 234 233
341 353 330 293 312 277 162 268 267 273 258 231 211 214 224 240 203 197 178 153 162 140 134 124 177 175 176 190 190 185 185 181 185 187 195 201 200 188 191 197 207 190 189 202 220 214 238 234 219
341 254 281 300 257 266 166 275 265 254 234 250 221 211 224 223 230 195 169 151 159 148 144 136 127 162 197 179 180 183 185 181 195 190 187 209 200 197 189 205 208 197 195 197 206 208 203 231 231
240 254 258 264 282 231 266 263 275 273 212 233 219 188 189 197 195 187 156 145 144 145 124 111 117 130 128 48 156 158 154 176 168 206 203 194 200 210 191 182 201 184 203 223 224 229 222 237 200
239 257 264 270 276 248 249 277 281 302 214 226 212 192 176 173 197 150 140 135 137 142 130 126 104 84 113 123 205 282 198 181 148 166 197 215 199 198 205 187 190 180 200 216 210 196 218 273 156
247 253 262 272 248 265 280 285 288 287 246 181 188 219 244 220 176 157 146 151 174 156 137 122 119 111 84 93 124 119 308 260 199 145 137 250 235 176 201 216 201 184 187 204 219 184 178 254 173
268 242 233 237 306 313 316 291 302 301 282 209 217 208 202 206 204 175 166 172 160 164 167 144 136 128 131 116 76 34 338 359 312 201 184 191 202 212 194 207 190 197 196 216 193 188 184 231 217
279 251 253 263 70 243 91 282 301 293 286 303 303 269 232 233 210 193 179 179 176 175 155 139 143 144 139 124 131 172 178 250 262 303 302 192 176 199 181 243 209 196 194 220 212 175 212 177 244
288 294 240 193 200 58 237 155 277 310 289 289 293 266 267 233 219 183 180 170 166 141 154 145 134 130 137 147 140 177 182 201 255 294 321 304 245 186 179 195 211 219 195 226 220 188 200 210 242
315 18 15 352 86 285 263 164 282 246 234 292 283 291 277 233 204 151 142 134 154 167 154 153 153 174 170 140 212 201 240 240 273 270 267 288 292 275 231 182 184 206 204 184 225 206 201 219 222
66 51 4 321 320 248 174 190 238 346 287 284 331 300 233 176 150 142 148 157 155 163 170 167 170 180 184 195 207 205 225 232 237 240 240 245 296 287 314 300 190 207 221 170 200 181 211 213 236
302 167 178 231 224 273 313 241 250 217 292 324 352 305 164 149 148 146 155 162 165 171 173 169 166 176 194 205 223 213 208 203 214 224 235 232 217 226 218 232 241 209 144 169 166 202 222 212 245
69 230 220 125 215 254 248 291 315 253 340 12 4 18 34 134 156 161 162 156 164 157 170 171 177 193 194 197 208 222 217 212 224 233 217 215 213 235 253 268 256 215 179 191 208 258 259 240 238
193 303 74 160 233 235 258 243 249 341 344 10 348 -0 40 19 1 352 173 181 187 168 186 184 181 186 189 188 190 206 222 234 227 226 232 221 235 247 266 269 269 289 282 226 236 241 246 235 231
277 224 37 127 202 297 322 278 240 174 142 81 321 295 46 44 19 26 19 338 259 190 190 203 194 191 199 198 206 210 224 227 236 246 258 250 234 229 237 237 239 240 241 247 225 239 250 257 264
163 165 160 132 213 229 205 266 267 152 145 183 222 249 274 87 38 349 323 342 356 310 227 199 198 195 207 203 213 213 220 231 236 252 266 279 262 238 222 230 226 214 223 231 225 245 253 255 258